Location: Poprad
(49.0500°N, 20.3000°E)
Time: 07:02:02
(UTC+02:00)

CAS-6 - Pass Details

Date: 26 April 2024
Orbit: 607 x 628 km, 97.8° (Epoch: 24 May)

Event Time Altitude Azimuth Distance (km) Brightness Sun altitude
Exits shadow 21:03:31 - 86° (E) 2,085 ? -11.5°
Reaches altitude 10° 21:04:04 10° 80° (E) 1,985 ? -11.6°
Maximum altitude 21:05:45 12° 56° (ENE) 1,843 ? -11.8°
Drops below altitude 10° 21:07:27 10° 33° (NNE) 1,985 ? -12.0°
Sets 21:10:53 0° 4° (N) 2,891 ? -12.5°
